Regional Weather Roundup
Issued by NWS

Home | Current Version | Previous Version | Graphics & Text | Print | Product List | Glossary Off
Versions: 1 2 3 4 5 6 7 8 9 10 11 12 13 14 15 16 17 18 19 20 21 22 23 24 25 26 27 28 29 30 31 32 33 34 35 36 37 38 39 40 41 42 43 44 45 46 47 48 49 50

000
ASUS43 KMKX 291421
RWRWI

WISCONSIN REGIONAL WEATHER ROUNDUP
NATIONAL WEATHER SERVICE MILWAUKEE/SULLIVAN WI
900 AM CDT FRI AUG 29 2014

NOTE: "FAIR" INDICATES FEW OR NO CLOUDS BELOW 12,000 FEET WITH NO
SIGNIFICANT WEATHER AND/OR OBSTRUCTIONS TO VISIBILITY.

WIZ001-002-006>008-014>016-023>028-291500-
NORTHWEST WISCONSIN

CITY           SKY/WX    TMP DP  RH WIND       PRES   REMARKS
SUPERIOR ARPT  RAIN      62  61  97 NE5       29.80F
ASHLAND        RAIN      60  59  96 SE3       29.85F FOG
HAYWARD        HVY RAIN  60  60 100 S6        29.88S VSB 3/4
SIREN          CLOUDY    62  61  97 SE9       29.82F
RICE LAKE      CLOUDY    61  60  95 SE6       29.86S FOG
LADYSMITH      CLOUDY    61  60  96 SE3       29.89S
EAU CLAIRE     CLOUDY    64  64 100 SE5       29.84F FOG
MENOMONIE      CLOUDY    64  63  98 SE6       29.84F FOG
NEW RICHMOND   CLOUDY    67  66  97 S8        29.81F FOG
OSCEOLA        CLOUDY    68  68 100 SE7       29.83S
$$

WIZ003>005-009-010-017-018-291500-
NORTH CENTRAL WISCONSIN

CITY           SKY/WX    TMP DP  RH WIND       PRES   REMARKS
WOODRUFF       DRIZZLE   59  58  94 SE8       29.89F
RHINELANDER    CLOUDY    58  58 100 SE8       29.91F FOG
EAGLE RIVER    LGT RAIN  59  59 100 SE7       29.90F
LAND O LAKES   RAIN      59  58  97 SE7       29.92F
PHILLIPS       CLOUDY    59  58  97 SE7       29.89R
TOMAHAWK       DRIZZLE   58  57  96 SE6       29.90F
MEDFORD        FOG       60  60 100 SE7       29.89F VSB 1/4
MERRILL        CLOUDY    60  60 100 SE8       29.90F FOG
$$

WIZ029-030-035-036-043>047-291500-
CENTRAL WISCONSIN

CITY           SKY/WX    TMP DP  RH WIND       PRES   REMARKS
WAUSAU         CLOUDY    61  60  97 SE8       29.89F FOG
MOSINEE        FOG       61  61 100 SE8       29.91  VSB 1/4
MARSHFIELD     FOG       63  62  97 SE8       29.89F VSB 1/2
STEVENS POINT  CLOUDY    61  60  97 SE7       29.91F FOG
WAUPACA        CLOUDY    66  65  96 E7        29.93F
WAUTOMA        HVY RAIN  66  64  93 CALM      29.93F
WISC RAPIDS    CLOUDY    66  64  93 SE9       29.91F FOG
CAMP DOUGLAS   CLOUDY    66  66 100 SE7       29.89F
$$

WIZ011>013-019>022-031-037>040-048>050-291500-
NORTHEAST WISCONSIN

CITY           SKY/WX    TMP DP  RH WIND       PRES   REMARKS
ANTIGO         FOG       58  58 100 SE9       29.93F VSB 1/2
STURGEON BAY   CLOUDY    64  61  88 S12       29.96F
GREEN BAY      CLOUDY    67  66  97 S7        29.95S
MANITOWOC      CLOUDY    69  67  93 S13       29.96F
APPLETON       CLOUDY    66  64  94 S7        29.95S
CLINTONVILLE   CLOUDY    63  61  94 SE3       29.93S
OSHKOSH        CLOUDY    70  67  90 S12       29.93F
$$

WIZ032>034-041-042-053>061-291500-
SOUTHWEST WISCONSIN

CITY           SKY/WX    TMP DP  RH WIND       PRES   REMARKS
LA CROSSE      CLOUDY    71  67  87 SE8       29.85F
SPARTA         CLOUDY    69  66  89 S6        29.88F
VIROQUA        CLOUDY    68  68 100 SE9       29.89F
BOSCOBEL       CLOUDY    73  68  84 VRB6      29.89F
PRAIRIE DU CHI PTSUNNY   72  68  86 SE5       29.87F
PLATTEVILLE    CLOUDY    71  69  94 S8        29.93F
$$

WIZ056-057-062-063-064-067-068-291500-
SOUTH CENTRAL WISCONSIN

CITY           SKY/WX    TMP DP  RH WIND       PRES   REMARKS
BARABOO/DELLS  CLOUDY    68  65  91 SW7       29.92S FOG
LONE ROCK      CLOUDY    74  67  78 E6        29.91F
WATERTOWN      PTSUNNY   71  69  96 S5        29.95S
MADISON        MOSUNNY   72  66  81 S10       29.93F
MIDDLETON      CLOUDY    73  69  85 S12       29.93F
MONROE         MOSUNNY   70  68  94 S9G16     29.94F
JANESVILLE     MOSUNNY   72  70  94 CALM      29.95S
$$

WIZ051-052-058>065-066-070>072-291500-
SOUTHEAST WISCONSIN

CITY           SKY/WX    TMP DP  RH WIND       PRES   REMARKS
MILWAUKEE      PTSUNNY   72  67  84 S9        29.97S
WAUKESHA       PTSUNNY   70  64  83 S10       29.98S
MILWAUKEE/TIMM SUNNY     73  64  73 S10       29.97F
RACINE         CLOUDY    73  67  81 S8        30.00R
BURLINGTON     LGT RAIN  67  66  96 S8        29.97F
KENOSHA        LGT RAIN  71  68  90 S7        30.00R FOG
FOND DU LAC    PTSUNNY   72  66  81 S12       29.94F
SHEBOYGAN      PTSUNNY   73  68  84 S10       29.96S
WEST BEND      MOSUNNY   72  64  78 S10       29.96F
JUNEAU         PTSUNNY   69  66  91 S9        29.96F
$$

LSZ147-162-291500-
LAKE SUPERIOR

STATION/POSITION TIME  TEMP    WIND        PRES    WAVE
                       AIR SEA DIR/SP/G            HT/PER
                 (UTC) (F)     (DEG/KT/KT) (MB)    (FT/S)
W MID LAKE BUOY  1350   59 57  140/ 10/ 12 1011.4F   1
DEVILS ISLAND    1400   61     130/  5/  6 1010.4F
PORT WING        1340   62      70/  4     1009.8F
SAXON HARBOR     1300   62     170/  4/ 10 1010.8F
$$

LMZ867-665-643>646-291500-
LAKE MICHIGAN

STATION/POSITION TIME  TEMP    WIND        PRES    WAVE
                       AIR SEA DIR/SP/G            HT/PER
                 (UTC) (F)     (DEG/KT/KT) (MB)    (FT/S)
N MID LAKE BUOY  1350   61 65  150/ 17/ 21 1015.2F   2/ 3
NORTHPORT PIER   1300   62     140/ 16/ 19 1015.6S
SISTER BAY       1311   60     140/ 10/ 13   N/A
KEWAUNEE LAKESHO 1400   66     170/ 13/ 15 1013.7F
SHEBOYGAN LAKESH 1400   68 69  170/ 13/ 14 1014.5F
ATWATER BUOY     1300   70     170/ 12/ 16 1015.7S
MILWAUKEE LAKESH 1400   72     170/  8/ 11   N/A
S MID LAKE BUOY  1350   69 69  160/ 19/ 21 1015.3F   4/ 5
KENOSHA   LAKESH 1400   72     190/ 10/ 13 1015.2R
$$

TC  - TEMPERATURE IN CELSIUS
VSB - VISIBILITY IN STATUTE MILES
WCI - WIND CHILL INDEX
HX  - HEAT INDEX



USA.gov is the U.S. government's official web portal to all federal, state and local government web resources and services.